QPF
0.00 0.00 0.00 0.02 0.03 0.03 0.03 0.02 0.01 0.00 0.00 0.00 0.00 0.00 0.00 0.00 0.00 0.01 0.02 0.02 0.03 0.04 0.05 0.06 0.07 0.07 0.08 0.10 0.13 0.17 0.19 0.23 0.24 0.18 0.17 0.18 0.11 0.04 0.01 0.00 0.00 0.00 0.00
0.00 0.00 0.00 0.01 0.01 0.03 0.05 0.05 0.04 0.02 0.01 0.00 0.00 0.00 0.00 0.00 0.00 0.01 0.02 0.02 0.02 0.02 0.02 0.04 0.05 0.06 0.07 0.13 0.19 0.20 0.20 0.24 0.23 0.18 0.15 0.15 0.11 0.07 0.01 0.00 0.00 0.00 0.00
0.00 0.00 0.00 0.00 0.00 0.01 0.04 0.06 0.06 0.05 0.03 0.01 0.00 0.00 0.00 0.00 0.00 0.01 0.01 0.01 0.02 0.01 0.02 0.03 0.04 0.05 0.08 0.16 0.23 0.21 0.20 0.21 0.20 0.19 0.18 0.13 0.12 0.06 0.01 0.00 0.00 0.00 0.00
0.00 0.00 0.00 0.00 0.00 0.00 0.01 0.02 0.04 0.05 0.05 0.03 0.01 0.00 0.00 0.00 0.00 0.00 0.00 0.00 0.00 0.01 0.03 0.04 0.04 0.05 0.06 0.09 0.19 0.28 0.28 0.25 0.26 0.24 0.22 0.17 0.11 0.06 0.02 0.01 0.01 0.00 0.00
0.03 0.02 0.02 0.01 0.01 0.01 0.00 0.01 0.02 0.03 0.05 0.05 0.03 0.01 0.01 0.01 0.00 0.00 0.00 0.00 0.00 0.00 0.01 0.03 0.03 0.03 0.05 0.06 0.09 0.18 0.24 0.26 0.29 0.24 0.18 0.14 0.07 0.04 0.02 0.01 0.01 0.00 0.00
0.02 0.02 0.02 0.01 0.01 0.01 0.01 0.01 0.01 0.03 0.06 0.07 0.05 0.02 0.01 0.00 0.00 0.00 0.00 0.00 0.00 0.00 0.01 0.03 0.02 0.01 0.01 0.02 0.02 0.05 0.08 0.11 0.13 0.11 0.07 0.05 0.03 0.02 0.01 0.00 0.00 0.00 0.00
0.00 0.00 0.00 0.00 0.00 0.01 0.02 0.02 0.01 0.02 0.05 0.08 0.08 0.05 0.02 0.01 0.00 0.00 0.00 0.00 0.00 0.00 0.00 0.00 0.00 0.00 0.00 0.00 0.00 0.00 0.01 0.02 0.02 0.02 0.02 0.01 0.01 0.01 0.01 0.01 0.01 0.00 0.00
0.00 0.00 0.00 0.00 0.00 0.01 0.02 0.04 0.04 0.04 0.05 0.08 0.09 0.08 0.05 0.02 0.00 0.00 0.00 0.00 0.00 0.00 0.00 0.00 0.00 0.00 0.00 0.00 0.00 0.00 0.00 0.00 0.00 0.00 0.00 0.00 0.00 0.00 0.00 0.00 0.01 0.00 0.00
0.00 0.00 0.00 0.00 0.00 0.00 0.01 0.03 0.06 0.07 0.08 0.12 0.14 0.14 0.11 0.05 0.00 0.00 0.00 0.00 0.00 0.00 0.00 0.00 0.00 0.00 0.00 0.00 0.00 0.00 0.00 0.00 0.00 0.00 0.00 0.00 0.00 0.00 0.00 0.00 0.00 0.00 0.00
0.00 0.00 0.00 0.00 0.00 0.00 0.00 0.01 0.05 0.09 0.11 0.16 0.21 0.22 0.18 0.10 0.02 0.00 0.00 0.00 0.00 0.00 0.00 0.00 0.00 0.00 0.00 0.00 0.00 0.00 0.00 0.00 0.00 0.00 0.00 0.00 0.00 0.00 0.00 0.00 0.00 0.00 0.00
0.00 0.00 0.00 0.00 0.01 0.01 0.01 0.02 0.03 0.06 0.11 0.17 0.23 0.26 0.26 0.18 0.06 0.00 0.00 0.00 0.00 0.00 0.00 0.00 0.00 0.00 0.00 0.00 0.00 0.00 0.00 0.00 0.00 0.00 0.00 0.00 0.00 0.00 0.00 0.00 0.00 0.00 0.00
0.01 0.01 0.01 0.00 0.00 0.00 0.01 0.02 0.02 0.04 0.09 0.18 0.29 0.35 0.36 0.29 0.14 0.02 0.00 0.00 0.00 0.00 0.00 0.00 0.00 0.00 0.00 0.00 0.00 0.00 0.00 0.00 0.00 0.00 0.00 0.00 0.00 0.00 0.00 0.00 0.00 0.00 0.00
0.01 0.01 0.01 0.01 0.01 0.01 0.01 0.01 0.01 0.03 0.06 0.16 0.30 0.43 0.49 0.45 0.27 0.06 0.01 0.00 0.00 0.00 0.00 0.00 0.00 0.00 0.00 0.00 0.00 0.00 0.00 0.00 0.00 0.00 0.00 0.00 0.00 0.00 0.00 0.00 0.00 0.00 0.00
0.02 0.02 0.02 0.02 0.02 0.01 0.02 0.01 0.01 0.02 0.04 0.13 0.27 0.40 0.49 0.49 0.32 0.11 0.02 0.00 0.00 0.00 0.00 0.00 0.00 0.00 0.00 0.00 0.00 0.00 0.00 0.00 0.00 0.00 0.00 0.00 0.00 0.00 0.00 0.00 0.00 0.00 0.00
0.03 0.03 0.02 0.02 0.02 0.02 0.02 0.02 0.02 0.03 0.04 0.09 0.21 0.38 0.44 0.39 0.25 0.11 0.03 0.00 0.00 0.00 0.00 0.00 0.00 0.00 0.00 0.00 0.00 0.00 0.00 0.00 0.00 0.00 0.00 0.00 0.00 0.00 0.00 0.00 0.00 0.00 0.00
0.04 0.03 0.02 0.02 0.02 0.02 0.02 0.02 0.03 0.04 0.03 0.03 0.09 0.21 0.29 0.24 0.15 0.09 0.03 0.00 0.00 0.00 0.00 0.00 0.00 0.00 0.00 0.00 0.00 0.00 0.00 0.00 0.00 0.00 0.00 0.00 0.00 0.00 0.00 0.00 0.00 0.00 0.00
0.07 0.05 0.04 0.03 0.03 0.02 0.03 0.04 0.05 0.06 0.04 0.03 0.04 0.08 0.12 0.13 0.10 0.08 0.05 0.01 0.00 0.00 0.00 0.00 0.00 0.00 0.00 0.00 0.00 0.00 0.00 0.00 0.00 0.00 0.00 0.00 0.00 0.00 0.00 0.00 0.00 0.00 0.00
0.09 0.08 0.06 0.04 0.03 0.03 0.05 0.06 0.06 0.07 0.10 0.10 0.07 0.06 0.08 0.07 0.06 0.07 0.07 0.02 0.01 0.00 0.00 0.00 0.00 0.00 0.00 0.00 0.00 0.00 0.00 0.00 0.00 0.00 0.00 0.00 0.00 0.00 0.00 0.00 0.00 0.00 0.00
0.10 0.08 0.06 0.04 0.04 0.05 0.06 0.06 0.06 0.08 0.13 0.21 0.19 0.08 0.08 0.07 0.04 0.06 0.06 0.03 0.01 0.00 0.00 0.00 0.00 0.00 0.00 0.00 0.00 0.00 0.00 0.00 0.00 0.00 0.00 0.00 0.00 0.00 0.00 0.00 0.00 0.00 0.00
0.09 0.09 0.07 0.06 0.06 0.06 0.07 0.06 0.08 0.11 0.17 0.26 0.27 0.13 0.08 0.06 0.03 0.03 0.03 0.01 0.00 0.00 0.00 0.00 0.00 0.00 0.00 0.00 0.00 0.00 0.00 0.00 0.00 0.00 0.00 0.00 0.00 0.00 0.00 0.00 0.00 0.00 0.00
0.10 0.09 0.07 0.06 0.06 0.06 0.06 0.07 0.09 0.14 0.21 0.25 0.23 0.13 0.08 0.04 0.01 0.01 0.01 0.00 0.00 0.00 0.00 0.00 0.00 0.00 0.00 0.00 0.00 0.00 0.00 0.00 0.00 0.00 0.00 0.00 0.00 0.00 0.00 0.00 0.00 0.00 0.00
0.06 0.05 0.04 0.05 0.05 0.05 0.05 0.06 0.10 0.18 0.26 0.29 0.20 0.11 0.07 0.03 0.01 0.01 0.00 0.00 0.00 0.00 0.00 0.00 0.00 0.00 0.00 0.00 0.00 0.00 0.00 0.00 0.00 0.00 0.00 0.00 0.00 0.00 0.00 0.00 0.00 0.00 0.00
0.04 0.03 0.03 0.03 0.03 0.02 0.01 0.04 0.09 0.18 0.26 0.29 0.18 0.08 0.04 0.02 0.01 0.01 0.01 0.00 0.00 0.00 0.00 0.00 0.00 0.00 0.00 0.00 0.00 0.00 0.00 0.00 0.00 0.00 0.00 0.00 0.00 0.00 0.00 0.00 0.00 0.00 0.00
0.03 0.03 0.03 0.02 0.02 0.01 0.01 0.03 0.08 0.15 0.22 0.21 0.12 0.06 0.03 0.03 0.02 0.01 0.01 0.00 0.00 0.00 0.00 0.00 0.00 0.00 0.00 0.00 0.00 0.00 0.00 0.00 0.00 0.00 0.00 0.00 0.00 0.00 0.00 0.00 0.00 0.00 0.00
0.01 0.02 0.01 0.01 0.01 0.01 0.02 0.04 0.09 0.13 0.14 0.11 0.06 0.04 0.05 0.05 0.04 0.03 0.01 0.01 0.01 0.00 0.00 0.00 0.00 0.00 0.00 0.00 0.00 0.00 0.00 0.00 0.00 0.00 0.00 0.00 0.00 0.00 0.00 0.00 0.00 0.00 0.00
0.01 0.01 0.01 0.01 0.01 0.01 0.02 0.04 0.08 0.09 0.06 0.04 0.03 0.04 0.06 0.07 0.06 0.05 0.02 0.01 0.01 0.01 0.00 0.00 0.00 0.00 0.00 0.00 0.00 0.00 0.00 0.00 0.00 0.00 0.00 0.00 0.00 0.00 0.00 0.00 0.00 0.00 0.00
MSLP
1011.60 1011.09 1010.55 1010.00 1009.45 1008.95 1008.51 1008.18 1007.97 1007.87 1007.87 1007.93 1008.00 1008.06 1008.04 1007.93 1007.70 1007.36 1006.93 1006.43 1005.91 1005.40 1004.93 1004.54 1004.25 1004.07 1003.98 1004.01 1004.12 1004.31 1004.56 1004.87 1005.22 1005.60 1006.01 1006.43 1006.86 1007.30 1007.74 1008.17 1008.58 1008.99 1009.36
1012.24 1011.69 1011.08 1010.42 1009.73 1009.07 1008.47 1007.96 1007.59 1007.35 1007.24 1007.23 1007.28 1007.33 1007.36 1007.30 1007.15 1006.90 1006.54 1006.11 1005.64 1005.17 1004.73 1004.36 1004.07 1003.89 1003.82 1003.86 1003.99 1004.20 1004.49 1004.82 1005.20 1005.60 1006.02 1006.45 1006.88 1007.31 1007.75 1008.17 1008.60 1009.02 1009.42
1012.62 1012.07 1011.42 1010.69 1009.92 1009.14 1008.41 1007.78 1007.28 1006.92 1006.71 1006.63 1006.65 1006.70 1006.75 1006.75 1006.68 1006.51 1006.25 1005.90 1005.51 1005.11 1004.72 1004.38 1004.12 1003.96 1003.90 1003.94 1004.08 1004.30 1004.59 1004.93 1005.30 1005.69 1006.10 1006.50 1006.91 1007.31 1007.72 1008.12 1008.53 1008.94 1009.36
1012.60 1012.07 1011.43 1010.69 1009.89 1009.06 1008.27 1007.57 1006.99 1006.56 1006.29 1006.16 1006.15 1006.19 1006.26 1006.31 1006.30 1006.22 1006.05 1005.80 1005.51 1005.19 1004.87 1004.60 1004.39 1004.25 1004.21 1004.26 1004.40 1004.61 1004.88 1005.19 1005.54 1005.89 1006.26 1006.62 1006.98 1007.34 1007.69 1008.05 1008.42 1008.81 1009.22
1012.12 1011.64 1011.04 1010.34 1009.56 1008.76 1007.99 1007.29 1006.70 1006.25 1005.96 1005.80 1005.76 1005.81 1005.89 1005.97 1006.01 1006.00 1005.92 1005.77 1005.58 1005.35 1005.13 1004.94 1004.79 1004.70 1004.69 1004.75 1004.88 1005.08 1005.32 1005.60 1005.89 1006.20 1006.52 1006.82 1007.12 1007.42 1007.72 1008.03 1008.35 1008.70 1009.08
1011.23 1010.80 1010.26 1009.64 1008.95 1008.23 1007.53 1006.89 1006.36 1005.94 1005.66 1005.50 1005.46 1005.50 1005.58 1005.68 1005.75 1005.80 1005.79 1005.73 1005.64 1005.52 1005.40 1005.30 1005.22 1005.20 1005.23 1005.31 1005.45 1005.63 1005.85 1006.09 1006.34 1006.60 1006.86 1007.11 1007.35 1007.59 1007.84 1008.09 1008.37 1008.67 1009.01
1010.04 1009.65 1009.19 1008.66 1008.09 1007.49 1006.92 1006.39 1005.94 1005.59 1005.35 1005.21 1005.17 1005.20 1005.27 1005.37 1005.47 1005.54 1005.60 1005.62 1005.62 1005.60 1005.59 1005.59 1005.61 1005.66 1005.74 1005.87 1006.02 1006.20 1006.40 1006.62 1006.84 1007.06 1007.27 1007.48 1007.68 1007.87 1008.08 1008.29 1008.52 1008.78 1009.08
1008.72 1008.36 1007.97 1007.54 1007.09 1006.63 1006.19 1005.79 1005.45 1005.17 1004.98 1004.87 1004.83 1004.85 1004.91 1005.00 1005.10 1005.20 1005.30 1005.39 1005.47 1005.56 1005.65 1005.75 1005.86 1006.00 1006.16 1006.33 1006.52 1006.72 1006.92 1007.13 1007.33 1007.53 1007.72 1007.90 1008.08 1008.25 1008.43 1008.62 1008.82 1009.05 1009.31
1007.44 1007.11 1006.77 1006.42 1006.08 1005.74 1005.43 1005.14 1004.89 1004.69 1004.55 1004.45 1004.41 1004.42 1004.47 1004.54 1004.64 1004.76 1004.90 1005.05 1005.21 1005.39 1005.58 1005.78 1005.99 1006.21 1006.45 1006.68 1006.91 1007.14 1007.37 1007.59 1007.79 1007.99 1008.18 1008.36 1008.53 1008.70 1008.87 1009.05 1009.24 1009.45 1009.69
1006.32 1006.00 1005.70 1005.41 1005.15 1004.90 1004.68 1004.47 1004.30 1004.15 1004.04 1003.96 1003.93 1003.93 1003.97 1004.04 1004.15 1004.29 1004.47 1004.68 1004.91 1005.16 1005.44 1005.73 1006.03 1006.34 1006.64 1006.93 1007.22 1007.49 1007.74 1007.98 1008.21 1008.42 1008.62 1008.81 1009.00 1009.17 1009.35 1009.54 1009.73 1009.93 1010.15
1005.41 1005.09 1004.80 1004.55 1004.33 1004.14 1003.97 1003.82 1003.69 1003.58 1003.49 1003.43 1003.40 1003.41 1003.46 1003.56 1003.69 1003.87 1004.09 1004.35 1004.65 1004.97 1005.32 1005.68 1006.05 1006.42 1006.78 1007.13 1007.46 1007.77 1008.06 1008.32 1008.58 1008.81 1009.03 1009.24 1009.44 1009.64 1009.83 1010.03 1010.22 1010.43 1010.64
1004.67 1004.34 1004.06 1003.82 1003.62 1003.45 1003.30 1003.17 1003.06 1002.98 1002.91 1002.88 1002.88 1002.93 1003.02 1003.16 1003.34 1003.57 1003.85 1004.17 1004.52 1004.90 1005.29 1005.70 1006.11 1006.52 1006.92 1007.30 1007.66 1008.00 1008.32 1008.62 1008.89 1009.15 1009.39 1009.62 1009.84 1010.05 1010.26 1010.46 1010.66 1010.87 1011.08
1004.01 1003.68 1003.40 1003.17 1002.96 1002.79 1002.64 1002.52 1002.42 1002.36 1002.33 1002.35 1002.41 1002.52 1002.68 1002.90 1003.16 1003.46 1003.80 1004.17 1004.56 1004.97 1005.38 1005.81 1006.23 1006.65 1007.06 1007.46 1007.85 1008.21 1008.55 1008.87 1009.17 1009.44 1009.70 1009.94 1010.16 1010.38 1010.60 1010.81 1011.01 1011.22 1011.42
1003.32 1003.01 1002.74 1002.49 1002.28 1002.10 1001.95 1001.84 1001.76 1001.73 1001.76 1001.85 1002.00 1002.21 1002.47 1002.79 1003.14 1003.52 1003.92 1004.33 1004.74 1005.16 1005.57 1005.98 1006.39 1006.80 1007.20 1007.60 1007.99 1008.36 1008.72 1009.06 1009.37 1009.67 1009.93 1010.18 1010.41 1010.63 1010.84 1011.05 1011.25 1011.45 1011.65
1002.54 1002.25 1001.99 1001.74 1001.53 1001.35 1001.20 1001.11 1001.07 1001.10 1001.21 1001.39 1001.65 1001.98 1002.36 1002.79 1003.24 1003.69 1004.14 1004.58 1004.99 1005.39 1005.77 1006.14 1006.51 1006.89 1007.27 1007.65 1008.04 1008.43 1008.80 1009.16 1009.50 1009.81 1010.09 1010.34 1010.57 1010.79 1010.99 1011.19 1011.38 1011.58 1011.77
1001.64 1001.37 1001.12 1000.89 1000.68 1000.51 1000.39 1000.33 1000.35 1000.46 1000.66 1000.96 1001.34 1001.80 1002.30 1002.83 1003.36 1003.88 1004.36 1004.79 1005.19 1005.54 1005.87 1006.19 1006.51 1006.84 1007.19 1007.57 1007.96 1008.36 1008.77 1009.16 1009.52 1009.86 1010.16 1010.42 1010.66 1010.87 1011.07 1011.25 1011.44 1011.63 1011.82
1000.64 1000.40 1000.18 999.97 999.78 999.64 999.55 999.55 999.63 999.83 1000.13 1000.54 1001.04 1001.61 1002.21 1002.82 1003.41 1003.96 1004.44 1004.86 1005.21 1005.51 1005.78 1006.04 1006.31 1006.60 1006.94 1007.31 1007.72 1008.16 1008.60 1009.03 1009.44 1009.82 1010.15 1010.43 1010.68 1010.89 1011.08 1011.27 1011.45 1011.63 1011.82
999.63 999.42 999.23 999.05 998.89 998.79 998.75 998.80 998.96 999.23 999.62 1000.12 1000.72 1001.37 1002.04 1002.69 1003.31 1003.85 1004.32 1004.69 1004.99 1005.23 1005.44 1005.65 1005.89 1006.16 1006.50 1006.89 1007.34 1007.82 1008.32 1008.81 1009.27 1009.69 1010.06 1010.37 1010.64 1010.86 1011.06 1011.25 1011.43 1011.61 1011.80
998.69 998.52 998.36 998.21 998.10 998.03 998.04 998.14 998.35 998.69 999.15 999.71 1000.35 1001.04 1001.74 1002.40 1003.01 1003.53 1003.95 1004.28 1004.52 1004.72 1004.89 1005.07 1005.29 1005.58 1005.94 1006.37 1006.87 1007.41 1007.97 1008.52 1009.04 1009.51 1009.92 1010.26 1010.55 1010.79 1011.00 1011.19 1011.38 1011.57 1011.76
997.91 997.77 997.64 997.53 997.45 997.42 997.46 997.60 997.85 998.22 998.71 999.29 999.94 1000.63 1001.31 1001.95 1002.52 1002.99 1003.37 1003.66 1003.87 1004.04 1004.20 1004.38 1004.63 1004.94 1005.35 1005.84 1006.40 1007.00 1007.62 1008.23 1008.79 1009.30 1009.74 1010.11 1010.42 1010.67 1010.89 1011.09 1011.28 1011.48 1011.67
997.32 997.22 997.12 997.03 996.98 996.98 997.04 997.20 997.46 997.83 998.31 998.87 999.49 1000.14 1000.78 1001.37 1001.89 1002.32 1002.66 1002.92 1003.13 1003.30 1003.49 1003.71 1004.00 1004.38 1004.85 1005.40 1006.02 1006.67 1007.34 1007.98 1008.57 1009.10 1009.56 1009.93 1010.24 1010.50 1010.72 1010.92 1011.11 1011.31 1011.50
996.92 996.84 996.77 996.71 996.68 996.68 996.76 996.91 997.16 997.50 997.94 998.45 999.02 999.61 1000.18 1000.72 1001.19 1001.59 1001.92 1002.19 1002.41 1002.63 1002.87 1003.17 1003.53 1003.98 1004.51 1005.12 1005.78 1006.47 1007.15 1007.80 1008.40 1008.91 1009.35 1009.71 1010.01 1010.25 1010.46 1010.66 1010.84 1011.03 1011.21
996.66 996.60 996.55 996.50 996.48 996.49 996.55 996.69 996.90 997.20 997.58 998.03 998.53 999.05 999.56 1000.05 1000.50 1000.89 1001.23 1001.53 1001.82 1002.11 1002.43 1002.81 1003.26 1003.79 1004.38 1005.04 1005.72 1006.41 1007.08 1007.70 1008.25 1008.73 1009.12 1009.44 1009.70 1009.91 1010.10 1010.27 1010.45 1010.62 1010.79
996.47 996.42 996.38 996.34 996.32 996.32 996.37 996.47 996.64 996.89 997.21 997.60 998.03 998.49 998.96 999.42 999.86 1000.26 1000.65 1001.01 1001.38 1001.76 1002.18 1002.66 1003.19 1003.78 1004.42 1005.09 1005.77 1006.43 1007.06 1007.62 1008.10 1008.51 1008.84 1009.10 1009.31 1009.48 1009.64 1009.78 1009.94 1010.09 1010.25
996.29 996.24 996.20 996.16 996.13 996.13 996.15 996.23 996.36 996.56 996.83 997.16 997.55 997.96 998.41 998.85 999.30 999.74 1000.18 1000.62 1001.07 1001.55 1002.06 1002.62 1003.22 1003.86 1004.52 1005.19 1005.84 1006.45 1007.01 1007.50 1007.90 1008.23 1008.48 1008.68 1008.83 1008.96 1009.08 1009.21 1009.34 1009.49 1009.64
996.10 996.04 995.99 995.94 995.90 995.88 995.89 995.94 996.05 996.22 996.45 996.74 997.09 997.49 997.92 998.37 998.84 999.32 999.82 1000.32 1000.86 1001.41 1002.00 1002.62 1003.26 1003.92 1004.58 1005.23 1005.83 1006.39 1006.87 1007.28 1007.60 1007.85 1008.04 1008.18 1008.29 1008.39 1008.48 1008.59 1008.71 1008.85 1009.00
Thickness
5668 5671 5676 5681 5686 5689 5689 5689 5687 5685 5682 5679 5677 5676 5676 5677 5677 5676 5678 5679 5679 5679 5680 5679 5677 5677 5680 5685 5689 5693 5693 5690 5684 5680 5678 5674 5671 5670 5670 5672 5673 5672 5669
5648 5650 5655 5660 5667 5673 5677 5678 5677 5675 5673 5673 5673 5672 5672 5672 5671 5671 5673 5673 5672 5671 5672 5671 5670 5670 5671 5675 5680 5684 5685 5683 5678 5669 5664 5661 5660 5661 5663 5665 5666 5664 5660
5627 5629 5633 5638 5645 5654 5661 5665 5666 5666 5665 5666 5667 5668 5668 5667 5666 5666 5667 5667 5666 5665 5664 5663 5661 5661 5662 5664 5669 5672 5673 5672 5668 5661 5655 5654 5653 5654 5656 5658 5658 5657 5654
5603 5605 5610 5616 5623 5633 5644 5650 5654 5656 5657 5659 5661 5663 5663 5661 5661 5661 5661 5661 5661 5660 5658 5656 5655 5654 5655 5656 5658 5659 5659 5656 5653 5650 5648 5647 5646 5650 5652 5652 5650 5650 5650
5586 5589 5592 5597 5604 5613 5623 5631 5638 5643 5648 5650 5652 5656 5657 5656 5656 5654 5653 5655 5656 5655 5653 5651 5650 5647 5647 5649 5650 5649 5648 5644 5640 5639 5638 5639 5641 5644 5649 5651 5646 5644 5643
5576 5580 5582 5583 5587 5593 5600 5608 5617 5627 5634 5639 5642 5647 5649 5652 5648 5642 5642 5647 5649 5649 5647 5645 5645 5642 5639 5639 5640 5640 5640 5637 5633 5633 5633 5635 5636 5641 5645 5646 5643 5642 5638
5563 5565 5568 5568 5571 5578 5583 5589 5598 5606 5616 5623 5629 5636 5639 5641 5637 5633 5629 5635 5640 5642 5640 5639 5641 5636 5634 5633 5631 5631 5631 5632 5633 5634 5631 5630 5631 5634 5637 5638 5639 5640 5635
5544 5544 5546 5547 5551 5556 5561 5567 5575 5585 5594 5602 5613 5622 5627 5629 5625 5623 5621 5625 5631 5634 5634 5632 5630 5628 5627 5627 5627 5626 5625 5623 5626 5626 5625 5625 5627 5629 5631 5632 5630 5627 5627
5531 5531 5531 5532 5533 5535 5538 5544 5552 5561 5571 5580 5592 5603 5612 5616 5613 5612 5610 5618 5621 5625 5626 5625 5624 5620 5614 5617 5619 5617 5615 5612 5610 5611 5612 5613 5615 5619 5623 5627 5625 5626 5624
5527 5526 5526 5525 5523 5522 5522 5524 5529 5537 5548 5560 5572 5584 5595 5603 5601 5601 5599 5611 5613 5617 5616 5614 5612 5612 5606 5608 5612 5611 5608 5607 5608 5607 5606 5608 5611 5613 5615 5620 5623 5624 5620
5519 5519 5520 5520 5519 5517 5515 5513 5515 5520 5529 5539 5553 5567 5579 5587 5589 5590 5591 5602 5608 5609 5611 5610 5604 5599 5600 5600 5604 5605 5603 5603 5603 5603 5603 5604 5606 5608 5611 5612 5615 5619 5617
5505 5507 5510 5512 5514 5516 5514 5511 5511 5512 5517 5526 5537 5549 5561 5568 5576 5578 5581 5586 5596 5602 5604 5603 5595 5590 5591 5591 5592 5590 5592 5596 5599 5600 5601 5602 5603 5603 5602 5602 5601 5601 5601
5493 5493 5496 5501 5506 5509 5510 5511 5511 5512 5516 5525 5531 5536 5543 5551 5559 5564 5567 5573 5581 5591 5593 5587 5583 5581 5581 5581 5578 5580 5586 5592 5594 5595 5597 5598 5599 5597 5595 5592 5591 5591 5591
5480 5480 5481 5487 5494 5500 5504 5509 5512 5516 5520 5525 5526 5529 5534 5539 5545 5551 5558 5565 5569 5576 5577 5570 5570 5573 5577 5571 5570 5575 5583 5588 5590 5591 5592 5592 5592 5590 5592 5592 5591 5591 5590
5465 5466 5468 5472 5479 5489 5498 5503 5508 5513 5518 5519 5521 5524 5527 5533 5540 5546 5556 5563 5568 5571 5568 5569 5571 5572 5573 5571 5572 5576 5580 5582 5585 5586 5586 5587 5587 5588 5588 5588 5589 5590 5588
5454 5454 5456 5462 5468 5477 5488 5498 5503 5505 5508 5509 5512 5516 5523 5530 5537 5541 5548 5557 5560 5559 5564 5567 5570 5572 5573 5573 5573 5575 5578 5580 5582 5583 5583 5584 5584 5584 5583 5583 5584 5584 5583
5447 5446 5447 5451 5458 5468 5479 5491 5499 5499 5498 5501 5505 5511 5518 5523 5530 5537 5542 5546 5550 5552 5562 5567 5570 5573 5574 5574 5575 5577 5578 5579 5579 5580 5581 5580 5581 5580 5579 5578 5578 5578 5578
5444 5443 5442 5445 5453 5464 5476 5488 5497 5502 5501 5505 5503 5505 5512 5517 5523 5530 5534 5537 5541 5547 5563 5568 5571 5573 5574 5575 5576 5577 5576 5574 5575 5576 5576 5576 5576 5576 5575 5575 5576 5575 5574
5443 5442 5443 5447 5454 5463 5475 5487 5496 5501 5503 5505 5508 5507 5507 5513 5518 5523 5529 5539 5544 5549 5563 5570 5573 5573 5573 5574 5575 5575 5574 5573 5573 5573 5573 5572 5573 5574 5574 5574 5572 5560 5566
5443 5443 5445 5450 5457 5466 5478 5489 5496 5500 5502 5504 5508 5513 5512 5516 5523 5523 5531 5542 5549 5555 5565 5571 5573 5574 5573 5573 5573 5573 5572 5571 5569 5571 5571 5571 5572 5573 5570 5569 5568 5564 5563
5446 5449 5453 5457 5464 5475 5486 5492 5496 5497 5501 5504 5508 5512 5515 5525 5535 5539 5543 5551 5557 5563 5568 5573 5574 5573 5573 5572 5573 5572 5571 5571 5569 5571 5571 5570 5570 5569 5568 5566 5563 5561 5559
5453 5456 5462 5468 5475 5483 5489 5492 5494 5495 5498 5502 5507 5514 5518 5532 5546 5551 5555 5559 5564 5569 5573 5576 5577 5576 5576 5575 5574 5572 5572 5571 5569 5569 5569 5568 5566 5564 5563 5560 5558 5555 5552
5464 5467 5471 5476 5482 5484 5489 5493 5495 5497 5500 5505 5513 5524 5532 5545 5558 5561 5564 5566 5569 5574 5579 5580 5579 5580 5579 5578 5576 5574 5573 5572 5571 5569 5566 5565 5563 5560 5558 5556 5553 5550 5547
5474 5477 5481 5485 5489 5494 5498 5502 5504 5508 5515 5523 5534 5543 5551 5561 5568 5570 5571 5572 5574 5580 5582 5581 5582 5583 5581 5579 5578 5576 5575 5574 5571 5568 5564 5563 5561 5558 5556 5552 5550 5549 5546
5487 5490 5493 5498 5503 5508 5512 5517 5522 5528 5536 5545 5552 5559 5565 5571 5575 5577 5577 5578 5579 5581 5582 5582 5583 5583 5581 5579 5578 5577 5574 5569 5567 5566 5563 5560 5558 5556 5554 5552 5549 5547 5545
5504 5507 5510 5514 5519 5525 5531 5537 5542 5547 5554 5561 5567 5571 5575 5578 5582 5583 5583 5581 5579 5578 5579 5580 5581 5582 5580 5577 5576 5573 5568 5565 5562 5558 5560 5558 5556 5554 5552 5551 5549 5546 5544